Location: Newark
(69.0000°N, 72.0000°W)
Time: 18:49:24
(UTC+00:00)

Envisat - Visible Passes

Search period start: 20 October 2019 00:00
Search period end: 30 October 2019 00:00
Orbit: 764 x 766 km, 98.1° (Epoch: 20 October)

Date Brightness Start Highest point End Pass type
(mag) Time Alt. Az. Time Alt. Az. Time Alt. Az.
20 Oct 6.1 00:58:11 10° WSW 01:00:53 14° WNW 01:03:36 10° NW visible
20 Oct 6.4 09:31:14 10° NE 09:33:03 12° ENE 09:34:52 10° E visible
20 Oct 5.1 11:09:08 10° NNE 11:13:45 33° E 11:18:19 10° SSE visible
20 Oct 3.7 22:38:21 10° S 22:43:21 58° WSW 22:48:25 10° NNW visible
21 Oct 5.7 00:19:39 10° SW 00:23:27 21° W 00:27:17 10° NNW visible
21 Oct 5.8 10:32:29 10° NNE 10:36:30 23° E 10:40:28 10° SE visible
21 Oct 3.1 22:01:20 10° SSE 22:06:27 84° WSW 22:11:35 10° NNW visible
21 Oct 5.0 23:41:42 10° SSW 23:46:10 30° W 23:50:40 10° NNW visible
22 Oct 6.3 01:25:46 10° W 01:26:56 11° WNW 01:28:07 10° NW visible
22 Oct 6.1 09:56:05 10° NE 09:59:05 16° ENE 10:02:07 10° ESE visible
22 Oct 4.3 23:04:11 10° S 23:09:02 44° W 23:13:56 10° NNW visible
23 Oct 6.0 00:46:18 10° WSW 00:49:24 16° WNW 00:52:31 10° NW visible
23 Oct 6.6 09:20:44 10° NE 09:21:33 10° ENE 09:22:22 10° ENE visible
23 Oct 5.3 10:57:53 10° NNE 11:02:21 29° E 11:06:47 10° SSE visible
23 Oct 3.5 22:26:58 10° S 22:32:02 65° WSW 22:37:08 10° NNW visible
24 Oct 5.5 00:07:59 10° SW 00:12:01 23° W 00:16:04 10° NNW visible
24 Oct 5.9 10:21:17 10° NNE 10:25:03 20° E 10:28:48 10° SE visible
24 Oct 3.0 21:50:04 10° SSE 21:55:10 88° ENE 22:00:18 10° NNW visible
24 Oct 4.8 23:30:10 10° SSW 23:34:47 34° W 23:39:25 10° NNW visible
25 Oct 6.2 01:13:27 10° W 01:15:26 12° WNW 01:17:25 10° NW visible
25 Oct 6.2 09:45:01 10° NE 09:47:37 14° ENE 09:50:13 10° ESE visible
25 Oct 4.8 11:23:22 10° NNE 11:28:08 38° E 11:32:53 10° SSE visible
25 Oct 4.0 22:52:45 10° S 22:57:41 49° W 23:02:39 10° NNW visible
26 Oct 5.8 00:34:31 10° WSW 00:37:56 18° WNW 00:41:23 10° NW visible
26 Oct 5.5 10:46:40 10° NNE 10:50:56 26° E 10:55:12 10° SE visible
26 Oct 3.3 22:15:38 10° SSE 22:20:44 73° WSW 22:25:51 10° NNW visible
26 Oct 5.3 23:56:22 10° SW 00:00:36 26° W 00:04:52 10° NNW visible
27 Oct 6.0 10:10:07 10° NE 10:13:36 18° ENE 10:17:04 10° ESE visible
27 Oct 3.0 21:38:48 10° SSE 21:43:53 80° ENE 21:49:01 10° NNW visible
27 Oct 4.6 23:18:40 10° SSW 23:23:24 38° W 23:28:10 10° NNW visible
28 Oct 6.1 01:01:24 10° W 01:03:56 14° WNW 01:06:29 10° NW visible
28 Oct 6.3 09:34:03 10° NE 09:36:07 12° ENE 09:38:11 10° E visible
28 Oct 5.0 11:12:06 10° NNE 11:16:45 34° E 11:21:23 10° SSE visible
28 Oct 3.8 22:41:21 10° S 22:46:21 55° WSW 22:51:23 10° NNW visible
29 Oct 5.7 00:22:47 10° SW 00:26:29 20° W 00:30:13 10° NNW visible
29 Oct 5.6 10:35:26 10° NNE 10:39:31 24° E 10:43:36 10° SE visible
29 Oct 3.1 22:04:20 10° SSE 22:09:26 81° WSW 22:14:34 10° NNW visible
29 Oct 5.1 23:44:47 10° SSW 23:49:12 29° W 23:53:37 10° NNW visible
